This is the latest recevied weather packets stored in our database for station/object K5GHS-1. If no packets are shown the sender has not sent any weather packets the latest 10 day(s).
| Time | Temp. | Humidity | Pressure | Rain* | Wind** | Luminosity | Snow |
|---|---|---|---|---|---|---|---|
| 1777933501 | 27.78° C | 57% | 1004.7 hPa | 0 mm | - | 288 W/m² | - |
| 1777933198 | 27.78° C | 56% | 1004.8 hPa | 0 mm | - | 316 W/m² | - |
| 1777932895 | 27.78° C | 55% | 1005 hPa | 0 mm | - | 349 W/m² | - |
| 1777932592 | 28.33° C | 55% | 1005.3 hPa | 0 mm | - | 408 W/m² | - |
| 1777932289 | 28.33° C | 55% | 1005.1 hPa | 0 mm | - | 455 W/m² | - |
| 1777931985 | 27.78° C | 56% | 1005 hPa | 0 mm | - | 363 W/m² | - |
| 1777931682 | 27.78° C | 56% | 1005.2 hPa | 0 mm | - | 412 W/m² | - |
| 1777931379 | 27.78° C | 55% | 1005.2 hPa | 0 mm | - | 481 W/m² | - |
| 1777931075 | 27.22° C | 57% | 1005.5 hPa | 0 mm | - | 487 W/m² | - |
| 1777930772 | 27.22° C | 56% | 1005.7 hPa | 0 mm | - | 285 W/m² | - |
| 1777930468 | 27.22° C | 56% | 1005.6 hPa | 0 mm | - | 412 W/m² | - |
| 1777930166 | 27.78° C | 55% | 1005.6 hPa | 0 mm | - | 393 W/m² | - |
| 1777929861 | 27.22° C | 56% | 1005.6 hPa | 0 mm | - | 467 W/m² | - |
| 1777929559 | 27.22° C | 56% | 1005.9 hPa | 0 mm | - | 465 W/m² | - |
| 1777929255 | 27.22° C | 56% | 1006.2 hPa | 0 mm | - | 464 W/m² | - |
| 1777928953 | 27.22° C | 55% | 1006.2 hPa | 0 mm | - | 442 W/m² | - |
| 1777928650 | 27.22° C | 55% | 1006.1 hPa | 0 mm | - | 409 W/m² | - |
| 1777928347 | 27.78° C | 54% | 1006.4 hPa | 0 mm | - | 444 W/m² | - |
| 1777928044 | 27.22° C | 55% | 1006.2 hPa | 0 mm | - | 432 W/m² | - |
| 1777927742 | 27.78° C | 54% | 1006.2 hPa | 0 mm | - | 451 W/m² | - |
| 1777927440 | 27.22° C | 54% | 1006.2 hPa | 0 mm | - | 374 W/m² | - |
| 1777927140 | 27.22° C | 54% | 1006.7 hPa | 0 mm | - | 328 W/m² | - |
| 1777926836 | 27.22° C | 55% | 1006.7 hPa | 0 mm | - | 563 W/m² | - |
| 1777926532 | 26.67° C | 55% | 1006.7 hPa | 0 mm | - | 568 W/m² | - |
| 1777926229 | 27.22° C | 54% | 1006.9 hPa | 0 mm | - | 627 W/m² | - |
* Rain latest hour (hover to see other rain measurements)
** Current wind speed in m/s (hover to see current wind gust speed)